Location: ???? ????
(41.4149°N, 22.8816°E)
Time: 14:51:28
(UTC+00:00)

CENTAUR R/B - Pass Details

Date: 14 July 2020
Orbit: 760 x 1428 km, 63.5° (Epoch: 01 August)

Event Time Altitude Azimuth Distance (km) Brightness Sun altitude
Exits shadow 01:21:35 - 164° (SSE) 2,839 4.6 -16.0°
Reaches altitude 10° 01:22:51 10° 156° (SSE) 2,479 4.4 -15.9°
Maximum altitude 01:27:10 22° 107° (ESE) 1,889 4.3 -15.3°
Drops below altitude 10° 01:31:58 10° 59° (ENE) 2,797 6.1 -14.7°
Sets 01:35:21 0° 46° (NE) 3,881 7.6 -14.3°
